{"data":{"norad_id":59690,"intl_designator":"2024-086J","name":"STARLINK-32106","alt_names":[],"object_type":"PAYLOAD","status":"ACTIVE","operator":null,"country":"US","launch_date":"2024-05-08","launch_site_code":"AFETR","launch_vehicle":null,"mission":null,"orbit_class":"UNKNOWN","rcs_meters":null,"size_class":null,"mass_kg":null,"dimensions":null,"purposes":["comms"],"wikipedia_slug":null,"has_3d_model":false,"image_url":null,"decayed_at":null,"tle_current":{"epoch":"2026-05-24T22:48:00.063072Z","epoch_age_seconds":86254,"freshness":"FRESH","line1":"1 59690U 24086J   26144.95000073  .00000379  00000+0  23317-4 0  9998","line2":"2 59690  43.0028 341.5687 0001361 269.4222  90.6474 15.27577904115868","mean_motion":15.27577904,"eccentricity":0.0001361,"inclination_deg":43.0028,"raan_deg":341.5687,"arg_perigee_deg":269.4222,"mean_anomaly_deg":90.6474,"bstar":2.3317e-5,"rev_number":11586,"period_min":94.266878057697,"perigee_km":482.121563943,"apogee_km":483.98918050672,"semimajor_km":6861.1923722249,"source":"CELESTRAK","updated_at":"2026-05-25T13:38:19.024670Z"}}}